Regional Weather Roundup
Issued by NWS

Home | Current Version | Previous Version | Graphics & Text | Print | Product List | Glossary On
Versions: 1 2 3 4 5 6 7 8 9 10 11 12 13 14 15 16 17 18 19 20 21 22 23 24 25 26 27 28 29 30 31 32 33 34 35 36 37 38 39 40 41 42 43 44 45 46 47 48 49 50
000
ASUS45 KPSR 220410
RWRAZ

ARIZONA REGIONAL HOURLY WEATHER ROUNDUP
NATIONAL WEATHER SERVICE PHOENIX AZ
900 PM MST TUE OCT 21 2014

NOTE: FAIR INDICATES FEW OR NO CLOUDS BELOW 12,000 FEET WITH NO
SIGNIFICANT WEATHER AND/OR OBSTRUCTIONS TO VISIBILITY.

AZZ001>003-036-220500-
NORTHWEST ARIZONA

CITY           SKY/WX    TMP DP  RH WIND       PRES   REMARKS
BULLHEAD CITY  CLEAR     81  37  21 E5        29.81R
KINGMAN        CLEAR     63  44  50 S10       29.96R
$$

AZZ004>008-015-016-018-220500-
NORTH CENTRAL ARIZONA

CITY           SKY/WX    TMP DP  RH WIND       PRES   REMARKS
GRAND CANYON   PTCLDY    41  31  67 CALM      30.13R
PRESCOTT       PTCLDY    57  41  55 S6        30.05S
FLAGSTAFF      PTCLDY    48  39  71 SW5       30.15S
PAYSON         CLEAR     57  46  67 N3        30.09R
PAGE           CLEAR     67  36  31 SW5       29.95R
$$

AZZ009>014-017-220500-
NORTHEAST ARIZONA

CITY           SKY/WX    TMP DP  RH WIND       PRES   REMARKS
WINSLOW        CLEAR     57  47  69 SW5       30.04R
SAINT JOHNS    CLEAR     59  48  67 W13       30.08R
WINDOW ROCK    CLEAR     49  42  77 S3        30.14R
SHOW LOW       CLEAR     50  45  81 S8        30.16R
$$

AZZ023-220500-
GREATER PHOENIX AREA

CITY           SKY/WX    TMP DP  RH WIND       PRES   REMARKS
PHOENIX        CLEAR     82  52  35 W3        29.81R
BUCKEYE          N/A     72  48  43 N6        29.83R
LUKE AFB       CLEAR     73  54  50 NW8       29.82R
DEER VALLEY    CLEAR     74  50  42 CALM      29.84R
SCOTTSDALE     CLEAR     77  51  40 CALM      29.86R
MESA-GATEWAY   PTCLDY    73  52  46 E3        29.86R
CHANDLER       PTCLDY    73  54  49 VRB3      29.83R
$$

AZZ027-028-220500-
SOUTHWEST MARICOPA COUNTY AND PINAL COUNTY

CITY           SKY/WX    TMP DP  RH WIND       PRES   REMARKS
CASA GRANDE    CLEAR     72  48  43 CALM      29.85R
$$

AZZ503-504-507>509-220500-
SOUTHEAST ARIZONA

CITY           SKY/WX    TMP DP  RH WIND       PRES   REMARKS
TUCSON         PTCLDY    74  48  39 NW5       29.92R
DAVIS-MONTHAN  CLEAR     71  47  42 NW7       29.91R HAZE
NOGALES        MOCLDY    63  44  50 MISG      29.98R
SIERRA VISTA   MOCLDY    63  45  51 SW8       30.03R
DOUGLAS        CLEAR     63  49  60 E7        30.00R
SAFFORD        MOCLDY    66  54  65 SE7       29.95R
$$

AZZ020-021-025-026-031-220500-
SOUTHWEST ARIZONA

CITY           SKY/WX    TMP DP  RH WIND       PRES   REMARKS
YUMA           PTCLDY    84  53  34 SW6       29.77R
$$

CAZ031-033-041-043-047-048-061-220500-
SOUTHERN CALIFORNIA

CITY           SKY/WX    TMP DP  RH WIND       PRES   REMARKS
DOWNTOWN L.A.  CLEAR     68  62  81 CALM      29.85S
L.A. AIRPORT   CLEAR     68  63  84 CALM      29.86S
SAN DIEGO      PTCLDY    69  61  75 N5        29.88S
BURBANK        CLEAR     68  59  73 CALM      29.87R
ONTARIO        PTCLDY    68  56  65 W3        29.88R
RIVERSIDE      CLEAR     68  56  65 W3        29.88R
PALM SPRINGS   CLEAR     83  44  25 NW8       29.80R
EL CENTRO NAS  PTCLDY    78  50  37 S5        29.75R
IMPERIAL       CLEAR     79  52  38 SW5       29.74R
BLYTHE         CLEAR     84  40  21 SW8       29.77R
NEEDLES        CLEAR     79  37  22 W9        29.80R
$$

NVZ020-UTZ003-220500-
SOUTHERN NEVADA-UTAH

CITY           SKY/WX    TMP DP  RH WIND       PRES   REMARKS
LAS VEGAS      PTCLDY    74  25  16 S12       29.81R
SALT LAKE CITY PTCLDY    49  34  56 N13       30.06R
$$

NMZ009-TXZ055-220500-
NEW MEXICO-WEST TEXAS

CITY           SKY/WX    TMP DP  RH WIND       PRES   REMARKS
ALBUQUERQUE    PTCLDY    57  47  69 SE6       30.11R
EL PASO        PTCLDY    64  53  67 E7        30.04R
$$


........................KEY........................
SKY/WX - SKY CONDITION/WEATHER
TMP    - TEMPERATURE IN FAHRENHEIT
DP     - DEW POINT IN FAHRENHEIT
RH     - RELATIVE HUMIDITY IN PERCENT
WIND   - DIRECTION AND SPEED IN MILES PER HOUR (MPH)
VRB    - VARIABLE WIND DIRECTION
PRES   - MEAN SEA LEVEL PRESSURE IN INCHES OF MERCURY
         F - FALLING PRESSURE   R - RISING PRESSURE
         S - STEADY PRESSURE
VSB    - VISIBILITY IN MILES
HX     - HEAT INDEX IN FAHRENHEIT
WCI    - WIND CHILL INDEX IN FAHRENHEIT
TC     - TEMPERATURE IN CELSIUS WHICH IS ALSO KNOWN AS
         TEMPERATURE IN CENTIGRADE
AFB    - AIR FORCE BASE
         LUKE AFB IS LUKE AIR FORCE BASE
         DAVIS-MONTHAN IS DAVIS-MONTHAN AIR FORCE BASE
NAS    - NAVAL AIR STATION
         EL CENTRO NAS IS EL CENTRO NAVAL AIR STATION
N/A    - NOT AVAILABLE



USA.gov is the U.S. government's official web portal to all federal, state and local government web resources and services.